Regional Weather Roundup
Issued by NWS Charleston, SC

Current Version | Previous Version | Graphics & Text | Print | Product List | Glossary On
Versions: 1 2 3 4 5 6 7 8 9 10 11 12 13 14 15 16 17 18 19 20 21 22 23 24 25 26 27 28 29 30 31 32 33 34 35 36 37 38 39 40 41 42 43 44 45 46 47 48 49 50
000 ASUS42 KCHS 191742 RWRCHS REGIONAL WEATHER ROUNDUP NATIONAL WEATHER SERVICE CHARLESTON SC 100 PM EDT TUE SEP 19 2017 NOTE: "FAIR" INDICATES FEW OR NO CLOUDS BELOW 12,000 FEET WITH NO SIGNIFICANT WEATHER AND/OR OBSTRUCTIONS TO VISIBILITY. NOT ALL STATIONS ARE QUALITY CONTROLLED. USE DATA WITH CAUTION... ESPECIALLY DEWPOINT OBSERVATIONS. SCZ027-030-031-034>040-042>050-191800- ...SOUTHEAST SOUTH CAROLINA... CITY SKY/WX TMP DP RH WIND PRES REMARKS N CHARLESTON MOSUNNY 85 68 56 NW7 29.98F WATERFRONT PRK NOT AVBL JOHNS ISLAND FAIR 88 70 55 VRB7 29.98F HX 92 PINOPOLIS NOT AVBL MONCKS CORNER FAIR 82 63 51 N8 29.99F SUMMERVILLE FAIR 82 68 61 W5 30.00F BEAUFORT MCAS MOSUNNY 87 70 56 NW6 29.99F HX 92 BEAUFORT ARPT FAIR 86 68 54 NW8 29.98F HILTON HEAD IS MOSUNNY 86 70 58 N7 30.00F HX 90 WALTERBORO PTSUNNY 84 66 54 N3 30.00F ALLENDALE NOT AVBL ...SOUTHERN MIDLANDS AND PEE DEE... CITY SKY/WX TMP DP RH WIND PRES REMARKS GEORGETOWN FAIR 82 68 61 NW10G16 29.98F KINGSTREE PTSUNNY 81 68 65 N5 29.99F ORANGEBURG MOSUNNY 85 65 51 VRB3 30.01F BARNWELL PTSUNNY 86 68 54 CALM 30.00F AIKEN CLOUDY 81 66 61 CALM 30.05F MANNING FAIR 82 55 39 N7 29.99F COLUMBIA PTSUNNY 85 65 51 NW5 30.00F SUMTER SUNNY 84 64 50 CALM 29.98F FLORENCE SUNNY 81 66 60 NW6 30.00F MYRTLE BEACH MOSUNNY 83 68 60 N9 29.98F N MYRTLE BEACH SUNNY 84 68 58 VRB5 29.96F $$ GAZ063-065-086>088-099>101-113>116-118-119-134>141-150-191800- ...SOUTHEAST GEORGIA... CITY SKY/WX TMP DP RH WIND PRES REMARKS SAVANNAH ARPT MOSUNNY 89 68 49 W6 30.00F HX 93 HUNTER AAF MOSUNNY 86 69 55 CALM 29.97F HX 90 FORT STEWART MOSUNNY 88 65 47 W3 29.98F STATESBORO SUNNY 88 61 40 CALM 29.99F SYLVANIA MOSUNNY 88 71 55 W3 30.00F HX 94 CLAXTON FAIR 88 68 52 W5 30.00F HX 91 ...CSRA...CENTRAL AND FAR SOUTHEAST GEORGIA... CITY SKY/WX TMP DP RH WIND PRES REMARKS THOMSON MOSUNNY 87 65 48 NW5 30.05F AUGUSTA-BUSH MOSUNNY 88 68 51 E3 29.99F HX 91 AUGUSTA-DANIEL SUNNY 88 66 48 CALM 30.01F HX 90 SWAINSBORO FAIR 88 66 48 CALM 30.01F HX 90 VIDALIA MOSUNNY 90 68 48 W5 30.00F HX 93 EASTMAN FAIR 89 48 24 SW6 30.03F HAZLEHURST FAIR 91 48 23 CALM 29.99F ALMA SUNNY 89 65 44 W7 30.00F HX 91 WAYCROSS PTSUNNY 87 62 42 CALM 30.00F JESUP NOT AVBL BAXLEY FAIR 86 63 45 NW5 29.99F BRUNSWICK MOSUNNY 86 64 48 NW3 30.00F SAINT SIMONS SUNNY 87 67 51 VRB5 30.00F HX 90 $$ SCZ027-028-034-036>038-045-046-048>050-GAZ119-141-191800- ...LAKE AND SUPPLEMENTAL COASTAL OBSERVATIONS... STATION/POSITION TIME TEMP WIND PRES WAVE SWELL AIR SEA DIR/SP/G HT/PER HT/PER/DIR (UTC) (F) (DEG/KT/KT) (MB) (FT/S) (FT/S/D) WINYAH BAY 1645 80 340/ 6 1015.0F LAKE MURRAY 1720 85 190/ 3/ 3 1015.2 ACE BASIN NERRS 1645 85 240/ 3 1016.0S FORT PULASKI 1700 83 79 300/ 3/ 4 1016.1 SAPELO ISLAND 1700 87 CALM 1016.0 $$ ANZ835-935-AMZ111-154-330-350-352-354-370-450-454-472-191800- ...C-MAN AND BUOY OBSERVATIONS... STATION/POSITION TIME TEMP WIND PRES WAVE SWELL AIR SEA DIR/SP/G HT/PER HT/PER/DIR (UTC) (F) (DEG/KT/KT) (MB) (FT/S) (FT/S/D) BUOY 41004 1710 77 82 340/ 8/ 12 1015.0 BUOY 41008 1650 80 81 280/ 6/ 8 1016.1F 3/ 9 3/ 70/ 9 FOLLY BEACH CMAN 1700 81 30/ 3/ 4 1016.1F CAPERS NEARSHORE 1708 80 80 320/ 6/ 10 1015.2F FRIPP NEARSHORE 1708 80 70/ 6/ 8 1021.6F STATION/POSITION TIME TEMP WIND PRES WAVE SWELL AIR SEA DIR/SP/G HT/PER HT/PER/DIR (UTC) (F) (DEG/KT/KT) (MB) (FT/S) (FT/S/D) 5E ST. MARYS GA 1630 84 N/A 3/13 2/ 80/13 FRYING PAN BUOY 1710 75 81 300/ 8/ 10 1014.1 BUOY 41025 1650 72 75 330/ 23/ 29 1009.7R 10/12 7/ 80/12 CAPE LOOKOUT NC 1700 77 330/ 16/ 18 1012.1F BUOY 41002 1650 80 80 300/ 16/ 19 1012.7F 9/11 7/ 20/11 BUOY 41010 1710 84 340/ 8/ 12 1014.9 ST AUGUSTINE FL 1700 80 82 30/ 6/ 7 1016.7F $$

USA.gov is the U.S. government's official web portal to all federal, state and local government web resources and services.